Regional Weather Roundup
Issued by NWS Newport/Morehead, NC

Current Version | Previous Version | Text Only | Print | Product List | Glossary On
Versions: 1 2 3 4 5 6 7 8 9 10 11 12 13 14 15 16 17 18 19 20 21 22 23 24 25 26 27 28 29 30 31 32 33 34 35 36 37 38 39 40 41 42 43 44 45 46 47 48 49 50
000 ASUS42 KMHX 020422 RWRMHX WEATHER ROUNDUP FOR EASTERN NORTH CAROLINA NATIONAL WEATHER SERVICE NEWPORT/MOREHEAD CITY NC 1200 AM EDT SAT AUG 02 2014 NOTE: "FAIR" INDICATES FEW OR NO CLOUDS BELOW 12,000 FEET WITH NO SIGNIFICANT WEATHER AND/OR OBSTRUCTIONS TO VISIBILITY NCZ015>017-031-032-045>047-102-103-020500- NORTH COAST CITY SKY/WX TMP DP RH WIND PRES REMARKS EDENTON CLOUDY 74 73 95 SE9 30.07S ELIZABETH CITY CLOUDY 75 72 90 SE8 30.07F KITTY HAWK MOCLDY 75 73 93 SE7 30.07S MANTEO NOT AVBL $$ NCZ045>047-081-094-103-104-020500- CENTRAL COAST CITY SKY/WX TMP DP RH WIND PRES REMARKS FRISCO MOCLDY 76 74 93 SE13 30.09S SWANQUARTER N/A 77 N/A N/A SE5 30.03S $$ NCZ095-097-098-100-101-020500- SOUTHERN COAST CITY SKY/WX TMP DP RH WIND PRES REMARKS BEAUFORT PTCLDY 75 73 93 CALM 30.07S CEDAR ISLAND N/A 75 N/A N/A SE3 30.12S JACKSONVILLE CLOUDY 75 73 93 CALM 30.07R NEWPORT NOT AVBL PINEY ISLAND NOT AVBL WILMINGTON CLOUDY 75 73 93 CALM 30.06S $$ NCZ011>013-027>030-043-044-078>080-089-090>093-098-020500- COASTAL PLAIN CITY SKY/WX TMP DP RH WIND PRES REMARKS AHOSKIE CLOUDY 66 65 95 NW3 30.08F CLINTON CLOUDY 70 70 100 CALM 30.08S FOG ELIZABETHTOWN FOG 72 72 100 NW5 30.07R VSB 1 GOLDSBORO LGT RAIN 70 68 94 NW5 30.07R GREENVILLE CLOUDY 72 70 94 NW3 30.09S HAVELOCK PTCLDY 73 72 96 SE6 30.08S KENANSVILLE CLOUDY 74 73 95 CALM 30.08S KINSTON CLOUDY 75 74 96 CALM 30.08S NEW BERN MOCLDY 76 73 91 CALM 30.08S RICHLANDS CLOUDY 73 72 94 CALM 30.07S ROANOKE RAPIDS NOT AVBL ROCKY MOUNT CLOUDY 67 65 93 N7 30.09S WASHINGTON MOCLDY 73 72 95 S3 30.08R WHITEVILLE MOCLDY 74 73 96 CALM 30.06R $$ AMZ130-135-150-152-154-156-158-170-250-252-270-ANZ085-086-088-633-658-670-020500- MARINE OBSERVATIONS STATION/POSITION TIME TEMP WIND PRES WAVE SWELL AIR SEA DIR/SP/G HT/PER HT/PER (UTC) (F) (DEG/KT/KT) (MB) (FT/S) (FT/S) CHESAPEAKE LIGHT NOT AVBL BUOY 44014 0400 77 78 140/ 16/ 19 1018.4 4/ 5 2/ 8 DUCK 0400 76 75 160/ 12/ 16 1017.5 2E DUCK 0400 N/A 3/ 5 OREGON INLET 0400 75 77 140/ 9/ 11 1018.7 BUOY 44095 0400 77 N/A 4/ 5 20E OREGON INLET NOT AVBL HATTERAS CG 0400 76 79 130/ 9/ 12 1019.3 DIAMOND BUOY 0400 VRB 12/ 14 1018.6 4/ 6 3/ 6 CAPE LOOKOUT 0400 79 150/ 9/ 10 1018.0 BEAUFORT LAB 0400 79 79 200/ 4/ 5 1017.7 30 SE NEW RIVER 0400 81 81 160/ 8/ 10 1018.1 4/ 6 3/ 6 5 SE WRIGHTSVILL 0400 77 81 180/ 8/ 10 N/A BUOY 41002 0340 81 81 150/ 17/ 21 1018.9 4/ 6 2/ 8 BUOY 41004 0400 82 82 180/ 8/ 10 1016.2 4/ 6 3/ 6 $$

USA.gov is the U.S. government's official web portal to all federal, state and local government web resources and services.